Time,TemperatureF,DewpointF,PressureIn,WindDirection,WindDirectionDegrees,WindSpeedMPH,WindSpeedGustMPH,Humidity,HourlyPrecipIn,Conditions,Clouds,dailyrainin,SolarRadiationWatts/m^2,SoftwareType,DateUTC
2013-12-25 00:22:00,27.0,15.0,-100.00,NNW,339,5.0,15.0,60,0.00,,,0.04,0.000000,,2013-12-25 07:22:00,
2013-12-25 00:32:00,27.0,15.0,-100.00,NNW,339,5.0,15.0,60,0.00,,,0.04,0.000000,,2013-12-25 07:32:00,
2013-12-25 00:42:00,27.0,15.0,-100.00,NNW,339,5.0,15.0,60,0.00,,,0.04,0.000000,,2013-12-25 07:42:00,
2013-12-25 00:52:00,27.0,15.0,-100.00,NNW,339,5.0,15.0,60,0.00,,,0.04,0.000000,,2013-12-25 07:52:00,
2013-12-25 01:21:00,27.0,15.0,-100.00,NNW,340,5.0,14.0,60,0.00,,,0.04,0.000000,,2013-12-25 08:21:00,
2013-12-25 01:32:00,27.0,15.0,-100.00,NNW,340,5.0,14.0,60,0.00,,,0.04,0.000000,,2013-12-25 08:32:00,
2013-12-25 01:42:00,27.0,15.0,-100.00,NNW,340,5.0,14.0,60,0.00,,,0.04,0.000000,,2013-12-25 08:42:00,
2013-12-25 01:52:00,27.0,15.0,-100.00,NNW,340,5.0,14.0,60,0.00,,,0.04,0.000000,,2013-12-25 08:52:00,
2013-12-25 02:22:00,27.0,15.0,-100.00,NNW,327,6.0,18.0,61,0.00,,,0.04,0.000000,,2013-12-25 09:22:00,
2013-12-25 02:33:00,27.0,15.0,-100.00,NNW,327,6.0,18.0,61,0.00,,,0.04,0.000000,,2013-12-25 09:33:00,
2013-12-25 02:42:00,27.0,15.0,-100.00,NNW,327,6.0,18.0,61,0.00,,,0.04,0.000000,,2013-12-25 09:42:00,
2013-12-25 02:52:00,27.0,15.0,-100.00,NNW,327,6.0,18.0,61,0.00,,,0.04,0.000000,,2013-12-25 09:52:00,
2013-12-25 03:22:00,27.0,15.0,-100.00,NNW,331,5.0,22.0,61,0.00,,,-99.99,0.000000,,2013-12-25 10:22:00,
2013-12-25 03:32:00,27.0,15.0,-100.00,NNW,331,5.0,22.0,61,0.00,,,-99.99,0.000000,,2013-12-25 10:32:00,
2013-12-25 03:43:00,27.0,15.0,-100.00,NNW,331,5.0,22.0,61,0.00,,,-99.99,0.000000,,2013-12-25 10:43:00,
2013-12-25 03:53:00,27.0,15.0,-100.00,NNW,331,5.0,22.0,61,0.00,,,-99.99,0.000000,,2013-12-25 10:53:00,
2013-12-25 04:22:00,26.0,14.0,-100.00,NW,322,6.0,16.0,60,0.00,,,0.04,0.000000,,2013-12-25 11:22:00,
2013-12-25 04:32:00,26.0,14.0,-100.00,NW,322,6.0,16.0,60,0.00,,,0.04,0.000000,,2013-12-25 11:32:00,
2013-12-25 04:42:00,26.0,14.0,-100.00,NW,322,6.0,16.0,60,0.00,,,0.04,0.000000,,2013-12-25 11:42:00,
2013-12-25 04:52:00,26.0,14.0,-100.00,NW,322,6.0,16.0,60,0.00,,,0.04,0.000000,,2013-12-25 11:52:00,
2013-12-25 05:22:00,26.0,13.0,-100.00,NNW,335,7.0,18.0,58,0.00,,,0.04,0.000000,,2013-12-25 12:22:00,
2013-12-25 05:32:00,26.0,13.0,-100.00,NNW,335,7.0,18.0,58,0.00,,,0.04,0.000000,,2013-12-25 12:32:00,
2013-12-25 05:42:00,26.0,13.0,-100.00,NNW,335,7.0,18.0,58,0.00,,,0.04,0.000000,,2013-12-25 12:42:00,
2013-12-25 05:52:00,26.0,13.0,-100.00,NNW,335,7.0,18.0,58,0.00,,,0.04,0.000000,,2013-12-25 12:52:00,
2013-12-25 06:22:00,26.0,13.0,-100.00,NNW,336,9.0,19.0,57,0.00,,,0.04,0.000000,,2013-12-25 13:22:00,
2013-12-25 06:32:00,26.0,13.0,-100.00,NNW,336,9.0,19.0,57,0.00,,,0.04,0.000000,,2013-12-25 13:32:00,
2013-12-25 06:42:00,26.0,13.0,-100.00,NNW,336,9.0,19.0,57,0.00,,,0.04,0.000000,,2013-12-25 13:42:00,
2013-12-25 06:52:00,26.0,13.0,-100.00,NNW,336,9.0,19.0,57,0.00,,,0.04,0.000000,,2013-12-25 13:52:00,
2013-12-25 07:22:00,26.0,14.0,-100.00,NNW,342,8.0,19.0,59,0.00,,,0.04,0.000000,,2013-12-25 14:22:00,
2013-12-25 07:32:00,26.0,14.0,-100.00,NNW,342,8.0,19.0,59,0.00,,,0.04,0.000000,,2013-12-25 14:32:00,
2013-12-25 07:42:00,26.0,14.0,-100.00,NNW,342,8.0,19.0,59,0.00,,,0.04,0.000000,,2013-12-25 14:42:00,
2013-12-25 07:52:00,26.0,14.0,-100.00,NNW,342,8.0,19.0,59,0.00,,,0.04,0.000000,,2013-12-25 14:52:00,
2013-12-25 08:22:00,26.0,13.0,-100.00,NNW,346,6.0,20.0,58,0.00,,,0.04,6.000000,,2013-12-25 15:22:00,
2013-12-25 08:33:00,26.0,13.0,-100.00,NNW,346,6.0,20.0,58,0.00,,,0.04,6.000000,,2013-12-25 15:33:00,
2013-12-25 08:43:00,26.0,13.0,-100.00,NNW,346,6.0,20.0,58,0.00,,,0.04,6.000000,,2013-12-25 15:43:00,
2013-12-25 08:53:00,26.0,13.0,-100.00,NNW,346,6.0,20.0,58,0.00,,,0.04,6.000000,,2013-12-25 15:53:00,
2013-12-25 09:23:00,31.0,14.0,-100.00,North,2,3.0,12.0,48,0.00,,,0.04,146.000000,,2013-12-25 16:23:00,
2013-12-25 09:33:00,31.0,14.0,-100.00,North,2,3.0,12.0,48,0.00,,,0.04,146.000000,,2013-12-25 16:33:00,
2013-12-25 09:42:00,31.0,14.0,-100.00,North,2,3.0,12.0,48,0.00,,,0.04,146.000000,,2013-12-25 16:42:00,
2013-12-25 09:53:00,31.0,14.0,-100.00,North,2,3.0,12.0,48,0.00,,,0.04,146.000000,,2013-12-25 16:53:00,
2013-12-25 10:22:00,35.0,14.0,-100.00,NNW,342,3.0,12.0,41,0.00,,,0.04,282.000000,,2013-12-25 17:22:00,
2013-12-25 10:32:00,35.0,14.0,-100.00,NNW,342,3.0,12.0,41,0.00,,,0.04,282.000000,,2013-12-25 17:32:00,
2013-12-25 10:42:00,35.0,14.0,-100.00,NNW,342,3.0,12.0,41,0.00,,,0.04,282.000000,,2013-12-25 17:42:00,
2013-12-25 10:52:00,35.0,14.0,-100.00,NNW,342,3.0,12.0,41,0.00,,,0.04,282.000000,,2013-12-25 17:52:00,
2013-12-25 11:22:00,35.0,13.0,-100.00,NNW,342,8.0,20.0,40,0.00,,,0.04,386.000000,,2013-12-25 18:22:00,
2013-12-25 11:33:00,35.0,13.0,-100.00,NNW,342,8.0,20.0,40,0.00,,,0.04,386.000000,,2013-12-25 18:33:00,
2013-12-25 11:42:00,35.0,13.0,-100.00,NNW,342,8.0,20.0,40,0.00,,,0.04,386.000000,,2013-12-25 18:42:00,
2013-12-25 11:52:00,35.0,13.0,-100.00,NNW,342,8.0,20.0,40,0.00,,,0.04,386.000000,,2013-12-25 18:52:00,
2013-12-25 12:22:00,37.0,13.0,-100.00,NNW,344,6.0,16.0,37,0.00,,,0.04,439.000000,,2013-12-25 19:22:00,
2013-12-25 12:32:00,37.0,13.0,-100.00,NNW,344,6.0,16.0,37,0.00,,,0.04,439.000000,,2013-12-25 19:32:00,
2013-12-25 12:42:00,37.0,13.0,-100.00,NNW,344,6.0,16.0,37,0.00,,,0.04,439.000000,,2013-12-25 19:42:00,
2013-12-25 12:52:00,37.0,13.0,-100.00,NNW,344,6.0,16.0,37,0.00,,,0.04,439.000000,,2013-12-25 19:52:00,
2013-12-25 13:21:00,38.0,13.0,-100.00,NNW,333,5.0,14.0,36,0.00,,,0.00,427.000000,,2013-12-25 20:21:00,
2013-12-25 13:32:00,38.0,13.0,-100.00,NNW,333,5.0,14.0,36,0.00,,,0.00,427.000000,,2013-12-25 20:32:00,
2013-12-25 13:42:00,38.0,13.0,-100.00,NNW,333,5.0,14.0,36,0.00,,,0.00,427.000000,,2013-12-25 20:42:00,
2013-12-25 13:52:00,38.0,13.0,-100.00,NNW,333,5.0,14.0,36,0.00,,,0.00,427.000000,,2013-12-25 20:52:00,
2013-12-25 14:22:00,38.0,13.0,-100.00,NW,324,5.0,14.0,36,0.00,,,0.00,367.000000,,2013-12-25 21:22:00,
2013-12-25 14:33:00,38.0,13.0,-100.00,NW,324,5.0,14.0,36,0.00,,,0.00,367.000000,,2013-12-25 21:33:00,
2013-12-25 14:43:00,38.0,13.0,-100.00,NW,324,5.0,14.0,36,0.00,,,0.00,367.000000,,2013-12-25 21:43:00,
2013-12-25 14:53:00,38.0,13.0,-100.00,NW,324,5.0,14.0,36,0.00,,,0.00,367.000000,,2013-12-25 21:53:00,
2013-12-25 15:23:00,37.0,13.0,-100.00,NNW,337,4.0,13.0,36,0.00,,,0.00,271.000000,,2013-12-25 22:23:00,
2013-12-25 15:33:00,37.0,13.0,-100.00,NNW,337,4.0,13.0,36,0.00,,,0.00,271.000000,,2013-12-25 22:33:00,
2013-12-25 15:43:00,37.0,13.0,-100.00,NNW,337,4.0,13.0,36,0.00,,,0.00,271.000000,,2013-12-25 22:43:00,
2013-12-25 15:52:00,37.0,13.0,-100.00,NNW,337,4.0,13.0,36,0.00,,,0.00,271.000000,,2013-12-25 22:52:00,
2013-12-25 16:22:00,31.0,11.0,-100.00,NW,323,4.0,13.0,42,0.00,,,0.00,56.000000,,2013-12-25 23:22:00,
2013-12-25 16:33:00,31.0,11.0,-100.00,NW,323,4.0,13.0,42,0.00,,,0.00,56.000000,,2013-12-25 23:33:00,
2013-12-25 16:43:00,31.0,11.0,-100.00,NW,323,4.0,13.0,42,0.00,,,0.00,56.000000,,2013-12-25 23:43:00,
2013-12-25 16:52:00,31.0,11.0,-100.00,NW,323,4.0,13.0,42,0.00,,,0.00,56.000000,,2013-12-25 23:52:00,
2013-12-25 17:22:00,27.0,11.0,-100.00,North,-999,0.0,7.0,50,0.00,,,0.00,4.000000,,2013-12-26 00:22:00,
2013-12-25 17:32:00,27.0,11.0,-100.00,North,-999,0.0,7.0,50,0.00,,,0.00,4.000000,,2013-12-26 00:32:00,
2013-12-25 17:42:00,27.0,11.0,-100.00,North,-999,0.0,7.0,50,0.00,,,0.00,4.000000,,2013-12-26 00:42:00,
2013-12-25 17:52:00,27.0,11.0,-100.00,North,-999,0.0,7.0,50,0.00,,,0.00,4.000000,,2013-12-26 00:52:00,
2013-12-25 18:21:00,24.0,11.0,-100.00,SSE,164,2.0,5.0,57,0.00,,,0.00,0.000000,,2013-12-26 01:21:00,
2013-12-25 18:32:00,24.0,11.0,-100.00,SSE,164,2.0,5.0,57,0.00,,,0.00,0.000000,,2013-12-26 01:32:00,
2013-12-25 18:42:00,24.0,11.0,-100.00,SSE,164,2.0,5.0,57,0.00,,,0.00,0.000000,,2013-12-26 01:42:00,
2013-12-25 18:52:00,24.0,11.0,-100.00,SSE,164,2.0,5.0,57,0.00,,,0.00,0.000000,,2013-12-26 01:52:00,
2013-12-25 19:21:00,21.0,11.0,-100.00,SSE,164,2.0,3.0,65,0.00,,,0.00,0.000000,,2013-12-26 02:21:00,
2013-12-25 19:32:00,21.0,11.0,-100.00,SSE,164,2.0,3.0,65,0.00,,,0.00,0.000000,,2013-12-26 02:32:00,
2013-12-25 19:41:00,21.0,11.0,-100.00,SSE,164,2.0,3.0,65,0.00,,,0.00,0.000000,,2013-12-26 02:41:00,
2013-12-25 21:23:00,24.0,9.0,-100.00,NNW,348,2.0,8.0,53,-99.99,,,0.00,0.000000,,2013-12-26 04:23:00,
2013-12-25 21:33:00,24.0,9.0,-100.00,NNW,348,2.0,8.0,53,-99.99,,,0.00,0.000000,,2013-12-26 04:33:00,
2013-12-25 21:43:00,24.0,9.0,-100.00,NNW,348,2.0,8.0,53,-99.99,,,0.00,0.000000,,2013-12-26 04:43:00,
2013-12-25 21:52:00,24.0,9.0,-100.00,NNW,348,2.0,8.0,53,-99.99,,,0.00,0.000000,,2013-12-26 04:52:00,
2013-12-25 22:22:00,20.0,11.0,-100.00,NNW,344,3.0,5.0,66,0.00,,,0.00,0.000000,,2013-12-26 05:22:00,
2013-12-25 22:32:00,20.0,11.0,-100.00,NNW,344,3.0,5.0,66,0.00,,,0.00,0.000000,,2013-12-26 05:32:00,
2013-12-25 23:22:00,20.0,11.0,-100.00,NNW,329,3.0,8.0,67,-99.99,,,0.00,0.000000,,2013-12-26 06:22:00,
2013-12-25 23:33:00,20.0,11.0,-100.00,NNW,329,3.0,8.0,67,-99.99,,,0.00,0.000000,,2013-12-26 06:33:00,